Tacoma, WA
on Sunday, January 20, 2013

Sunday
Previous Day Next Day
Daily Summary
 ActualAverage (KSEA)Record (KSEA)
Temperature
Mean Temperature °F 42°F  
Max Temperature 36°F 48°F 64°F (1981)
Min Temperature 31°F 37°F 16°F (1954)
Degree Days
Heating Degree Days 32 23  
Month to date heating degree days 468  
Since 1 July heating degree days 2406  
Cooling Degree Days 0 0  
Month to date cooling degree days 0  
Year to date cooling degree days 0  
Moisture
Dew Point 33°F   
Average Humidity 100    
Maximum Humidity 100    
Minimum Humidity 99    
Precipitation
Precipitation 0.00 in 0.19 in 1.66 in (1972)
Month to date precipitation 3.78  
Year to date precipitation 3.78  
Snow
Snow 0.00 in in 1.50 in (1951)
Month to date snowfall  
Since 1 July snowfall  
Snow Depth in   
Wind
Wind Speed 2 mph   
Max Wind Speed 6 mph   
Max Gust Speed mph   
Visibility 1 miles   
Events Fog   

Key: T is trace of precipitation, MM is missing value
Source: NWS Daily Summary
Time(PST)TemperatureDew PointHumidity Pressure Visibility Wind DirectionWind SpeedGust SpeedPrecipitationEvents Conditions
12:04 AM 32.0°F 32.0°F 100% 30.37 in 0.5 miles ESE 1.2 mph - N/A Fog Light Freezing Fog
12:58 AM 31.5°F 31.3°F 99% 30.39 in 0.5 miles Variable 1.2 mph - 0.00 in Fog Light Freezing Fog
1:11 AM 32.0°F 32.0°F 100% 30.38 in 0.5 miles Variable 2.3 mph - N/A Fog Light Freezing Drizzle
1:26 AM 32.0°F 32.0°F 100% 30.38 in 0.8 miles Calm Calm - N/A   Light Freezing Drizzle
1:31 AM 32.0°F 32.0°F 100% 30.38 in 0.5 miles Variable 3.5 mph - N/A Fog Light Freezing Drizzle
1:58 AM 32.2°F 32.0°F 99% 30.40 in 0.5 miles East 1.2 mph - 0.00 in Fog Light Freezing Drizzle
2:53 AM 32.0°F 32.0°F 100% 30.38 in 0.5 miles Calm Calm - N/A Fog Light Freezing Drizzle
2:58 AM 32.5°F 32.4°F 99% 30.38 in 0.5 miles Calm Calm - 0.00 in Fog Light Freezing Drizzle
3:05 AM 32.0°F 32.0°F 100% 30.38 in 0.5 miles Calm Calm - N/A Fog Fog
3:30 AM 32.0°F 32.0°F 100% 30.38 in 0.5 miles Calm Calm - N/A Fog Fog
3:35 AM 32.0°F 32.0°F 100% 30.38 in 0.5 miles Variable 1.2 mph - N/A Fog Fog
3:58 AM 33.3°F 33.1°F 99% 30.37 in 0.5 miles Variable 2.3 mph - 0.00 in Fog Fog
4:28 AM 32.0°F 32.0°F 100% 30.37 in 0.2 miles Variable 2.3 mph - N/A Fog Fog
4:58 AM 32.0°F 32.0°F 100% 30.37 in 0.2 miles ENE 2.3 mph - N/A Fog Fog
5:08 AM 32.0°F 32.0°F 100% 30.36 in 0.2 miles ENE 2.3 mph - N/A Fog Fog
5:13 AM 32.0°F 32.0°F 100% 30.36 in 0.2 miles NNE 1.2 mph - N/A Fog Fog
5:18 AM 32.0°F 32.0°F 100% 30.36 in 0.2 miles NE 1.2 mph - N/A Fog Fog
5:43 AM 32.0°F 32.0°F 100% 30.36 in 0.2 miles Calm Calm - N/A Fog Fog
5:48 AM 32.0°F 32.0°F 100% 30.36 in 0.2 miles Calm Calm - N/A Fog Fog
5:53 AM 32.0°F 32.0°F 100% 30.36 in 0.2 miles Calm Calm - N/A Fog Fog
5:58 AM 33.4°F 33.3°F 99% 30.36 in 0.2 miles Calm Calm - N/A Fog Fog
6:13 AM 32.0°F 32.0°F 100% 30.36 in 0.2 miles NE 2.3 mph - N/A Fog Fog
6:28 AM 32.0°F 32.0°F 100% 30.37 in 0.5 miles NE 3.5 mph - N/A Fog Fog
6:43 AM 32.0°F 32.0°F 100% 30.36 in 0.2 miles ENE 2.3 mph - N/A Fog Fog
6:48 AM 32.0°F 32.0°F 100% 30.36 in 0.5 miles NE 3.5 mph - N/A Fog Fog
6:58 AM 32.7°F 32.5°F 99% 30.36 in 0.5 miles NE 2.3 mph - N/A Fog Fog
7:43 AM 32.0°F 32.0°F 100% 30.36 in 0.2 miles ENE 4.6 mph - N/A Fog Fog
7:52 AM 32.0°F 32.0°F 100% 30.37 in 0.2 miles NE 3.5 mph - N/A Fog Fog
7:58 AM 32.0°F 31.8°F 99% 30.37 in 0.2 miles NE 3.5 mph - 0.00 in Fog Light Freezing Drizzle
8:55 AM 32.5°F 32.4°F 99% 30.40 in 0.2 miles NNE 5.8 mph - N/A Fog Fog
9:01 AM 32.0°F 32.0°F 100% 30.40 in 0.2 miles NE 3.5 mph - N/A Fog Fog
9:55 AM 32.9°F 32.9°F 100% 30.41 in 0.2 miles NE 3.5 mph - N/A Fog Fog
10:05 AM 33.8°F 33.8°F 100% 30.41 in 0.5 miles NE 4.6 mph - N/A Fog Fog
10:15 AM 33.8°F 33.8°F 100% 30.41 in 0.2 miles NE 4.6 mph - N/A Fog Fog
10:17 AM 33.8°F 33.8°F 100% 30.41 in 0.2 miles NNE 4.6 mph - N/A Fog Fog
10:32 AM 33.8°F 33.8°F 100% 30.41 in 0.2 miles Calm Calm - N/A Fog Fog
10:49 AM 33.8°F 33.8°F 100% 30.40 in 0.2 miles NE 4.6 mph - N/A Fog Fog
10:55 AM 33.6°F 33.6°F 100% 30.40 in 0.2 miles NE 4.6 mph - N/A Fog Fog
11:35 AM 33.8°F 33.8°F 100% 30.38 in 0.2 miles NE 4.6 mph - N/A Fog Fog
11:38 AM 33.8°F 33.8°F 100% 30.38 in 0.5 miles NE 4.6 mph - N/A Fog Fog
11:55 AM 34.7°F 34.7°F 100% 30.37 in 0.2 miles NNE 3.5 mph - N/A Fog Fog
11:56 AM 33.8°F 33.8°F 100% 30.35 in 0.5 miles Calm Calm - N/A Fog Fog
11:57 AM 33.8°F 33.8°F 100% 30.37 in 0.5 miles Calm Calm - N/A Fog Fog
11:59 AM 33.8°F 33.8°F 100% 30.37 in 0.5 miles ENE 3.5 mph - N/A Fog Fog
12:02 PM 33.8°F 33.8°F 100% 30.37 in 0.8 miles ENE 3.5 mph - N/A   Mist
12:04 PM 33.8°F 33.8°F 100% 30.37 in 1.0 miles ENE 3.5 mph - N/A   Mist
12:05 PM 33.8°F 33.8°F 100% 30.37 in 1.2 miles ENE 3.5 mph - N/A   Overcast
12:08 PM 33.8°F 33.8°F 100% 30.37 in 1.8 miles East 4.6 mph - N/A   Overcast
12:10 PM 33.8°F 33.8°F 100% 30.37 in 1.8 miles East 3.5 mph - N/A   Overcast
12:16 PM 35.6°F 35.6°F 100% 30.37 in 1.5 miles Variable 3.5 mph - N/A   Overcast
12:17 PM 35.6°F 35.6°F 100% 30.36 in 1.8 miles East 3.5 mph - N/A   Overcast
12:19 PM 35.6°F 35.6°F 100% 30.36 in 2.0 miles East 3.5 mph - N/A   Overcast
12:21 PM 35.6°F 35.6°F 100% 30.36 in 2.5 miles ENE 4.6 mph - N/A   Overcast
12:24 PM 35.6°F 35.6°F 100% 30.36 in 3.0 miles NE 4.6 mph - N/A   Overcast
12:55 PM 35.1°F 35.1°F 100% 30.35 in 4.0 miles Calm Calm - N/A   Overcast
1:22 PM 35.6°F 35.6°F 100% 30.32 in 5.0 miles Variable 3.5 mph - N/A   Overcast
1:55 PM 35.8°F 35.8°F 100% 30.33 in 3.0 miles Calm Calm - N/A   Overcast
2:55 PM 36.5°F 36.5°F 100% 30.32 in 4.0 miles NNE 3.5 mph - N/A   Overcast
3:23 PM 35.6°F 35.6°F 100% 30.29 in 4.0 miles NNE 4.6 mph - N/A   Overcast
3:55 PM 36.1°F 36.1°F 100% 30.32 in 5.0 miles Calm Calm - N/A   Overcast
4:58 PM 35.2°F 35.2°F 100% 30.31 in 4.0 miles NNE 2.3 mph - N/A   Overcast
5:33 PM 35.6°F 35.6°F 100% 30.28 in 2.5 miles East 2.3 mph - N/A   Mostly Cloudy
5:38 PM 35.6°F 35.6°F 100% 30.28 in 2.0 miles ENE 1.2 mph - N/A   Overcast
5:43 PM 35.6°F 35.6°F 100% 30.28 in 1.8 miles East 2.3 mph - N/A   Overcast
5:48 PM 35.6°F 35.6°F 100% 30.28 in 1.5 miles Variable 3.5 mph - N/A   Overcast
5:53 PM 35.6°F 35.6°F 100% 30.28 in 1.5 miles Variable 2.3 mph - N/A   Overcast
5:58 PM 34.7°F 34.7°F 100% 30.30 in 1.2 miles Variable 2.3 mph - N/A   Overcast
6:03 PM 33.8°F 33.8°F 100% 30.28 in 1.0 miles Variable 3.5 mph - N/A   Mist
6:13 PM 33.8°F 33.8°F 100% 30.27 in 1.2 miles ESE 2.3 mph - N/A   Overcast
6:18 PM 33.8°F 33.8°F 100% 30.27 in 1.0 miles Variable 2.3 mph - N/A   Mist
6:23 PM 33.8°F 33.8°F 100% 30.27 in 1.0 miles Calm Calm - N/A   Mist
6:33 PM 33.8°F 33.8°F 100% 30.27 in 0.8 miles Variable 2.3 mph - N/A   Mist
6:38 PM 33.8°F 33.8°F 100% 30.27 in 0.8 miles SE 2.3 mph - N/A   Mist
6:43 PM 33.8°F 33.8°F 100% 30.27 in 0.5 miles Variable 1.2 mph - N/A Fog Fog
6:58 PM 33.6°F 33.6°F 100% 30.30 in 0.5 miles Variable 1.2 mph - N/A Fog Fog
7:58 PM 33.4°F 33.4°F 100% 30.30 in 0.5 miles SE 1.2 mph - N/A Fog Fog
8:03 PM 32.0°F 32.0°F 100% 30.27 in 0.5 miles East 1.2 mph - N/A Fog Fog
8:08 PM 32.0°F 32.0°F 100% 30.27 in 0.8 miles ENE 1.2 mph - N/A   Mist
8:43 PM 32.0°F 32.0°F 100% 30.27 in 0.5 miles SSE 2.3 mph - N/A Fog Fog
8:58 PM 33.4°F 33.4°F 100% 30.30 in 0.5 miles SE 2.3 mph - N/A Fog Fog
9:03 PM 32.0°F 32.0°F 100% 30.27 in 0.8 miles SE 2.3 mph - N/A   Mist
9:13 PM 32.0°F 32.0°F 100% 30.27 in 0.5 miles East 1.2 mph - N/A Fog Fog
9:58 PM 33.3°F 33.3°F 100% 30.30 in 0.5 miles Calm Calm - N/A Fog Fog
10:08 PM 32.0°F 32.0°F 100% 30.27 in 0.5 miles South 1.2 mph - N/A Fog Fog
10:13 PM 32.0°F 32.0°F 100% 30.27 in 0.8 miles South 2.3 mph - N/A   Mist
10:28 PM 32.0°F 32.0°F 100% 30.27 in 0.5 miles South 2.3 mph - N/A Fog Fog
10:58 PM 33.4°F 33.4°F 100% 30.30 in 0.5 miles South 3.5 mph - N/A Fog Fog
11:58 PM 33.6°F 33.6°F 100% 30.30 in 0.5 miles South 1.2 mph - N/A Fog Fog
Moon Phase
Jan. 20 Jan. 26 Feb. 03 Feb. 10 Feb. 17
Sunrise:07:47 AM (PST) Moon Rise:12:00 PM (PST)1/20
Sunset:04:54 PM (PST) Moon Set:02:23 AM (PST)1/20

Copyright © 2014 The Weather Underground, Inc.